Overview Statistics Trail Chart Weather Telemetry Raw packets
 

This is the latest recevied weather packets stored in our database for station/object SV9TNF-57. If no packets are shown the sender has not sent any weather packets the latest 10 day(s).

<< 36 37 38 39 40 41 42 >>
Time Temp. Humidity Pressure Rain* Wind** Luminosity Snow
1788415145 30° C 39% 993.4 hPa 0 mm 0 m/s - -
1788414845 29.44° C 40% 993.4 hPa 0 mm 3.58 m/s, 294° - -
1788414558 29.44° C 40% 993.5 hPa 0 mm 2.68 m/s, 17° - -
1788414244 28.89° C 41% 993.5 hPa 0 mm 0.45 m/s, 339° - -
1788413945 28.89° C 41% 993.4 hPa 0 mm 4.92 m/s, 257° - -
1788413644 28.33° C 42% 993.5 hPa 0 mm 5.81 m/s, 265° - -
1788413344 28.33° C 42% 993.3 hPa 0 mm 0.89 m/s, 317° - -
1788413044 27.78° C 43% 993.5 hPa 0 mm 2.68 m/s, 318° - -
1788412744 27.78° C 43% 993.5 hPa 0 mm 0.89 m/s, 309° - -
1788412444 27.22° C 44% 993.4 hPa 0 mm 1.34 m/s, 341° - -
1788412144 26.67° C 45% 993.2 hPa 0 mm 1.79 m/s, 289° - -
1788411844 26.67° C 47% 993.2 hPa 0 mm 2.68 m/s, 308° - -
1788411544 26.11° C 47% 993.2 hPa 0 mm 6.71 m/s, 326° - -
1788411244 26.11° C 47% 993.2 hPa 0 mm 4.92 m/s, 315° - -
1788410944 26.11° C 47% 993.5 hPa 0 mm 3.13 m/s, 303° - -
1788410643 26.11° C 47% 993.4 hPa 0 mm 0.45 m/s, 285° - -
1788410343 26.11° C 46% 993.6 hPa 0 mm 4.02 m/s, 272° - -
1788410043 26.11° C 46% 993.6 hPa 0 mm 0.89 m/s, 287° - -
1788409743 26.11° C 47% 993.5 hPa 0 mm 1.34 m/s, 309° - -
1788409444 26.11° C 47% 993.3 hPa 0 mm 0 m/s - -
1788409143 26.11° C 47% 993.6 hPa 0 mm 0 m/s - -
1788408843 26.11° C 47% 993.5 hPa 0 mm 1.79 m/s, 288° - -
1788408542 26.11° C 47% 993.4 hPa 0 mm 0 m/s - -
1788408242 26.11° C 46% 993.3 hPa 0 mm 0.45 m/s, 277° - -
1788407942 26.67° C 46% 993.3 hPa 0 mm 0.45 m/s, 284° - -

* Rain latest hour (hover to see other rain measurements)
** Current wind speed in m/s (hover to see current wind gust speed)